Homer, AK

7:25 AM AKST on December 07, 2016 (GMT -0900)
Homer

Weather History for PAHO - March, 2013

Change the Weather History Date:

Friday, March 8, 2013

  Actual Average Record
Temperature  
Mean Temperature 38 °F -  
Max Temperature 41 °F 34 °F 48 °F (1984)
Min Temperature 35 °F 20 °F -18 °F (1971)
Degree Days  
Heating Degree Days 27    
Moisture  
Dew Point 30 °F    
Average Humidity 75    
Maximum Humidity 87    
Minimum Humidity 55    
Precipitation  
Precipitation 0.02 in - - ()
Sea Level Pressure  
Sea Level Pressure 29.61 in    
Wind  
Wind Speed 10 mph (East)    
Max Wind Speed 14 mph    
Max Gust Speed 26 mph    
Visibility 10 miles    
Events Rain , Snow    
Averages and records for this station are not official NWS values.
T = Trace of Precipitation, MM = Missing Value Source: NWS Daily Summary

Daily Weather History Graph

Daily Weather History Graph

Search for Another Location

Airport or City:

Trip Planner

Search our weather history database for the weather conditions in past years. The results will help you decide how hot, cold, wet, or windy it might be!

Date:

Astronomy

Mar. 08, 2013 Rise Set
Actual Time 7:41 AM AKST 6:52 PM AKST
Civil Twilight 7:00 AM AKST 7:33 PM AKST
Nautical Twilight 6:13 AM AKST 8:21 PM AKST
Astronomical Twilight 5:23 AM AKST 9:11 PM AKST
Moon 6:11 AM AKST (3/8) 3:25 PM AKST (3/8)
Length of Visible Light 12h 32m
Length of Day
11h 10m
Waning Crescent, 11% of the Moon is Illuminated
Mar 8
Waning Crescent
Mar 11
New
Mar 19
First Quarter
Mar 27
Full
Apr 2
Last Quarter

Hourly Weather History & Observations

Time (AKST) Temp. Windchill Dew Point Humidity Pressure Visibility Wind Dir Wind Speed Gust Speed Precip Events Conditions
12:53 AM 39.9 °F 32.1 °F 28.9 °F 65% 29.49 in 10.0 mi ESE 13.8 mph 21.9 mph N/A   Scattered Clouds
1:53 AM 41.0 °F 33.9 °F 27.0 °F 57% 29.51 in 10.0 mi ESE 12.7 mph 18.4 mph N/A   Overcast
3:53 AM 41.0 °F 33.5 °F 26.1 °F 55% 29.52 in 10.0 mi SE 13.8 mph 26.5 mph N/A   Overcast
4:53 AM 37.9 °F 30.5 °F 30.0 °F 73% 29.52 in 10.0 mi East 11.5 mph 18.4 mph 0.00 in   Scattered Clouds
5:53 AM 39.0 °F 31.8 °F 28.9 °F 67% 29.53 in 10.0 mi ESE 11.5 mph 20.7 mph 0.00 in   Mostly Cloudy
6:53 AM 37.9 °F 33.5 °F 28.0 °F 68% 29.54 in 10.0 mi East 5.8 mph - N/A   Scattered Clouds
7:53 AM 37.0 °F 31.0 °F 30.0 °F 76% 29.56 in 10.0 mi ESE 8.1 mph - N/A   Mostly Cloudy
8:53 AM 39.0 °F 33.4 °F 27.0 °F 62% 29.55 in 10.0 mi East 8.1 mph - N/A   Mostly Cloudy
9:53 AM 39.0 °F 33.4 °F 28.9 °F 67% 29.56 in 10.0 mi East 8.1 mph - N/A   Mostly Cloudy
10:53 AM 39.9 °F 35.8 °F 26.1 °F 58% 29.57 in 10.0 mi ESE 5.8 mph - N/A   Mostly Cloudy
11:53 AM 39.0 °F 31.8 °F 30.9 °F 73% 29.58 in 10.0 mi East 11.5 mph - N/A   Scattered Clouds
12:53 PM 39.9 °F 33.4 °F 28.0 °F 63% 29.58 in 10.0 mi East 10.4 mph - N/A   Mostly Cloudy
1:53 PM 37.0 °F 29.8 °F 30.9 °F 79% 29.60 in 8.0 mi ESE 10.4 mph 26.5 mph 0.00 in Snow Light Snow
2:06 PM 37.4 °F 30.8 °F 30.2 °F 75% 29.59 in 9.0 mi East 9.2 mph - 0.00 in Snow Light Snow
2:14 PM 37.4 °F 29.8 °F 30.2 °F 75% 29.59 in 10.0 mi East 11.5 mph - 0.00 in   Scattered Clouds
2:53 PM 37.9 °F 30.5 °F 30.0 °F 73% 29.59 in 10.0 mi SE 11.5 mph - 0.00 in Rain Light Rain
3:31 PM 37.4 °F 29.3 °F 30.2 °F 75% 29.59 in 9.0 mi East 12.7 mph 19.6 mph 0.01 in   Scattered Clouds
3:53 PM 37.9 °F 30.5 °F 30.0 °F 73% 29.61 in 9.0 mi SE 11.5 mph 17.3 mph 0.01 in   Mostly Cloudy
4:00 PM 35.6 °F 29.2 °F 30.2 °F 81% 29.60 in 5.0 mi SE 8.1 mph 17.3 mph 0.00 in Snow Light Snow
4:43 PM 37.4 °F 29.8 °F 30.2 °F 75% 29.60 in 10.0 mi East 11.5 mph - 0.00 in   Mostly Cloudy
4:53 PM 37.0 °F 29.3 °F 30.9 °F 79% 29.61 in 10.0 mi East 11.5 mph 21.9 mph 0.00 in   Scattered Clouds
5:53 PM 37.0 °F 29.8 °F 30.9 °F 79% 29.63 in 9.0 mi ESE 10.4 mph - 0.01 in   Overcast
6:53 PM 37.0 °F 29.3 °F 30.0 °F 76% 29.64 in 10.0 mi East 11.5 mph - N/A   Partly Cloudy
7:53 PM 36.0 °F 30.3 °F 30.9 °F 82% 29.66 in 10.0 mi East 6.9 mph - N/A   Overcast
8:53 PM 36.0 °F 31.1 °F 30.9 °F 82% 29.68 in 10.0 mi East 5.8 mph - N/A   Overcast
9:13 PM 35.6 °F 28.6 °F 30.2 °F 81% 29.68 in 10.0 mi East 9.2 mph - 0.00 in   Overcast
9:22 PM 35.6 °F 30.7 °F 30.2 °F 81% 29.68 in 10.0 mi East 5.8 mph - 0.00 in   Overcast
9:33 PM 35.6 °F 30.7 °F 32.0 °F 87% 29.68 in 10.0 mi East 5.8 mph - 0.00 in   Overcast
9:53 PM 35.1 °F 31.0 °F 30.9 °F 85% 29.70 in 10.0 mi NE 4.6 mph - 0.00 in   Overcast
10:14 PM 35.6 °F 30.7 °F 30.2 °F 81% 29.70 in 10.0 mi ENE 5.8 mph - 0.00 in Snow Light Snow
10:49 PM 35.6 °F - 30.2 °F 81% 29.71 in 10.0 mi Calm Calm - 0.00 in   Overcast
10:53 PM 35.1 °F 31.0 °F 30.9 °F 85% 29.71 in 10.0 mi NE 4.6 mph - 0.00 in   Overcast
11:44 PM 35.6 °F - 30.2 °F 81% 29.73 in 10.0 mi Calm Calm - 0.00 in   Overcast
11:53 PM 35.1 °F 31.0 °F 30.9 °F 85% 29.74 in 10.0 mi East 4.6 mph - 0.00 in   Overcast